FLOCK 4Y-3 (55035 NORAD) Tracking and Keplerian Element Data

This shows tracking and keplerian element data for the satellite.

Feedback or suggestion? Click here.




ElementValue
Catalog55035
NameFLOCK 4Y-3
Epoch Orbit1249
Epoch Day85.148525
Epoch Year2023
RAAN146.0033
Inclination97.4856
Eccentricity0.0013055
Argument of Perigee297.5017
Mean Anonmoly62.4888
Mean Motion15.16006709
Decay Rate0.00012501
L11 55035U 23001AC 23085.14852500 .00012501 00000+0 65229-3 0 9992
L22 55035 97.4856 146.0033 0013055 297.5017 62.4888 15.16006709 12498



Live tracking and technical data element details for FLOCK 4Y-3 (NORAD 55035). FLOCK 4Y-3 can be tracked NOW for your location showing map with azimuth and elevation plus other details from your city location.







IsCatalogInMostPopularTable: catalog: 55035, numindb: 10
Update: records affected: 1



GetName: 55035 FLOCK 4Y-3

Hit Count: updated at: Mon, 27 Mar 2023 07:43:31 GMT